APSTAR-6C

Last updated on Thu Jul 09 2026 00:03:07 GMT+0000 (Coordinated Universal Time)

1 43450U 18041A 26189.55101948 -.00000303 00000+0 00000+0 0 9994 2 43450 0.0283 330.2560 0000454 334.6813 313.9461 1.00271775 30023
UTC large
Height (km)
Speed (km/s)
/
Latitude / Longitude
Inclination (degrees)
Orbital Period (minutes)
Azimuth
Elevation
Range (km)
Doppler Factor

Next 0 passes for location: London (51.5072 / 0.1276)

No passes found over London.
APSTAR-6C